リニア彗星

333P/LINEAR (2024)

English version
Home page
Updated on June 6, 2020

---------------------------------------------------------------------

・ プロフィール

・ 軌道要素

Epoch 2024 Nov. 26.0 TT = JDT 2460640.5                                         
T 2024 Nov. 29.29931 TT                                 Rudenko                 
q   1.1129421            (2000.0)            P               Q                  
n   0.11366033     Peri.   26.01718     -0.12522101     +0.73230287             
a   4.2208195      Node   115.70573     +0.73014172     -0.38877199             
e   0.7363208      Incl.  132.02199     +0.67172373     +0.55909645             
P   8.67                                                                        
From 626 observations 2007 Nov. 4-2017 July 27, mean residual 0".4.             

・ 星図

・ 光度変化

        H = 15.0  G = 0.15               [   ,-55]  (              〜2024年10月 5日)
        m1 = 6.5 + 5 logΔ + 80   log r  [-55,-20]  (2024年10月 5日〜2024年11月 9日)
        m1 = 9.5 + 5 logΔ + 30.0 log r  [-20,108]  (2024年11月 9日〜2025年 3月17日)
        H = 15.0  G = 0.15               [108,   ]  (2025年 3月17日〜              )

---------------------------------------------------------------------

軌道要素はM.P.E.C. 2020-L06に掲載されたものです。
星図はステラナビゲータ Ver.10 (アストロアーツ) で作成したものです。
光度グラフはComet for Windowsで作成したものです。

---------------------------------------------------------------------

Copyright(C) Seiichi Yoshida (comet@aerith.net). All rights reserved.